This demonstration page uses our WeatherBlox Daily Observations layout. Learn more.

41.86663, -103.66717

Hourly Observations for June 16, 2019

Temp ( °F °C ) Dew Point ( °F °C ) Humidity (%) Winds ( mph kmh ) Pressure ( in mb ) Visibility ( mi km ) Precip ( " mm )
12:53 am 00:53 Partly Cloudy 58 14.4 54 12.2 87 87 NNE 3 6 29.88 1012 10 16.0934 0 0
1:53 am 01:53 Partly Cloudy 57 13.9 54 12.2 90 90 NW 3 6 29.88 1012 10 16.0934 0 0
2:53 am 02:53 Clear 57 13.9 54 12.2 90 90 ESE 6 9 29.83 1010 10 16.0934 0 0
3:53 am 03:53 Cloudy 58 14.4 55 12.8 90 90 Calm 29.88 1012 10 16.0934 0 0
4:53 am 04:53 Mostly Cloudy with Nearby Thunderstorms 58 14.4 56 13.3 93 93 WNW 5 7 29.91 1013 10 16.0934 0 0
5:15 am 05:15 Cloudy 58 14.4 56 13.3 93 93 N 3 6 29.93 1014 10 16.0934 0 0
5:53 am 05:53 Cloudy 58 14.4 56 13.3 93 93 E 3 6 29.93 1013 10 16.0934 0 0
6:53 am 06:53 Mostly Sunny 61 16.1 55 12.8 81 81 E 10 17 29.9 1013 10 16.0934 0 0
7:53 am 07:53 Mostly Cloudy 63 17.2 55 12.8 76 76 E 13 20 29.92 1013 10 16.0934 0 0.0254
8:53 am 08:53 Sunny 67 19.4 55 12.8 66 66 E 8 13 29.94 1014 10 16.0934 0 0
9:53 am 09:53 Cloudy 66 18.9 56 13.3 70 70 NE 17 28 29.94 1014 10 16.0934 0 0
10:53 am 10:53 Mostly Cloudy 67 19.4 56 13.3 68 68 E 12 19 29.93 1014 10 16.0934 0 0
11:53 am 11:53 Sunny 68 20 57 13.9 68 68 SE 13 20 29.92 1013 10 16.0934 0 0
12:53 pm 12:53 Sunny 70 21.1 59 15 68 68 SSE 12 19 29.92 1013 10 16.0934 0 0
1:53 pm 13:53 Sunny 73 22.8 60 15.6 64 64 Calm 29.88 1012 10 16.0934 0 0
2:53 pm 14:53 Mostly Cloudy 74 23.3 60 15.6 62 62 E 5 7 29.87 1011 10 16.0934 0 0
3:53 pm 15:53 Mostly Sunny 74 23.3 59 15 60 60 ENE 3 6 29.86 1011 10 16.0934 0 0
4:53 pm 16:53 Sunny 72 22.2 61 16.1 68 68 Calm 29.86 1011 10 16.0934 0 0
5:53 pm 17:53 Mostly Sunny 75 23.9 60 15.6 60 60 NNE 3 6 29.83 1010 10 16.0934 0 0
6:53 pm 18:53 Sunny 75 23.9 60 15.6 60 60 E 10 17 29.84 1010 10 16.0934 0 0
7:53 pm 19:53 Mostly Cloudy 69 20.6 58 14.4 68 68 SE 12 19 29.87 1012 10 16.0934 0 0
8:53 pm 20:53 Clear 65 18.3 57 13.9 76 76 ESE 12 19 29.88 1012 10 16.0934 0 0
9:53 pm 21:53 Cloudy 64 17.8 57 13.9 78 78 ENE 12 19 29.93 1014 10 16.0934 0 0
10:11 pm 22:11 Cloudy with Nearby Thunderstorms 64 17.8 59 15 84 84 ENE 12 19 29.89 1012 10 16.0934 0 0.0254
10:18 pm 22:18 Cloudy with Light Thunderstorms 63 17.2 60 15.6 90 90 ENE 9 15 29.9 1013 7 11.26538 0.01 0.254
10:31 pm 22:31 Cloudy with Thunderstorms 62 16.7 62 16.7 100 100 NNE 14 22 29.93 1013 2.5 4.02335 0.06 1.524
10:36 pm 22:36 Cloudy with Heavy Thunderstorms 61 16 61 16 100 100 ENE 15 24 29.93 1013 1.75 2.816345 0 0
10:42 pm 22:42 Cloudy with Nearby Thunderstorms 61 16.1 61 16.1 100 100 E 16 26 29.91 1013 2.5 4.02335 0.13 3.302
10:44 pm 22:44 Cloudy with Nearby Thunderstorms 61 16.1 61 16.1 100 100 E 17 28 29.91 1013 3 4.82802 0.13 3.302
10:53 pm 22:53 Mostly Cloudy with Nearby Thunderstorms 61 16 N/A N/A E 18 30 29.94 1014 7 11.26538 0.14 3.556
11:23 pm 23:23 Clear 59 15 59 15 100 100 ESE 18 30 29.92 1013 10 16.0934 0 0.0254
11:53 pm 23:53 Clear 58 14.4 53 11.7 84 84 SE 10 17 29.94 1014 10 16.0934 0 0.0254

Powered by AerisWeather